Regional Weather Roundup
Issued by NWS

Home | Current Version | Previous Version | Graphics & Text | Print | Product List | Glossary On
Versions: 1 2 3 4 5 6 7 8 9 10 11 12 13 14 15 16 17 18 19 20 21 22 23 24 25 26 27 28 29 30 31 32 33 34 35 36 37 38 39 40 41 42 43 44 45 46 47 48 49 50
000
ASUS43 KFSD 261002
RWRSD

WEATHER ROUNDUP FOR SOUTH DAKOTA
NATIONAL WEATHER SERVICE SIOUX FALLS SD
400 AM CST WED NOV 26 2014

NOTE: "FAIR" INDICATES FEW OR NO CLOUDS BELOW 12,000 FEET WITH NO
SIGNIFICANT WEATHER AND/OR OBSTRUCTIONS TO VISIBILITY.


SDZ001>005-009-010-012>017-261100-
NORTHWEST AND NORTH CENTRAL SOUTH DAKOTA

CITY           SKY/WX    TMP DP  RH WIND       PRES   REMARKS
BUFFALO          N/A     25  19  78 N7        30.10S WCI  17
FAITH            N/A     22  17  81 N12       30.18R WCI  10
MOBRIDGE       CLOUDY    17  12  80 N25       30.16R WCI  -1
$$

SDZ012>016-024>037-041>051-057-063-072>074-261100-
SOUTHWEST AND SOUTH CENTRAL SOUTH DAKOTA

CITY           SKY/WX    TMP DP  RH WIND       PRES   REMARKS
RAPID CTY ARPT CLOUDY    25  20  81 N20       30.16R WCI  11
PIERRE         CLOUDY    21  16  81 N20G31    30.14R WCI   6
CUSTER         CLOUDY    22  14  71 NW7       30.05R WCI  13
ELLSWORTH AFB  CLOUDY    25  21  83 N16       30.15R WCI  12
PHILIP         CLOUDY    25  19  78 N20G28    30.17R WCI  11
PINE RIDGE     CLOUDY    27  20  75 N15G23    30.14S WCI  15
WINNER         CLOUDY    26  22  84 NW30G43   30.06R WCI  10
$$

SDZ004>011-016>023-039-040-261100-
NORTHEAST SOUTH DAKOTA

CITY           SKY/WX    TMP DP  RH WIND       PRES   REMARKS
ABERDEEN       LGT SNOW  16  11  80 N23G33    30.13R WCI  -2
WATERTOWN      LGT SNOW  21  17  84 N25       29.98R FOG     WCI   4
SISSETON         N/A     19  17  92 N22       30.10R WCI   2
$$

SDZ017-020-022-023-036>040-048>070-261100-
SOUTHEAST SOUTH DAKOTA

CITY           SKY/WX    TMP DP  RH WIND       PRES   REMARKS
SIOUX FALLS    LGT SNOW  30  28  92 NE7       29.87R FOG     WCI  23
HURON          LGT SNOW  25  23  92 N21G33    29.99R FOG     WCI  11
MITCHELL       CLOUDY    34  32  92 N20       29.93R WCI  23
YANKTON        CLOUDY    36  32  87 NW18G24   29.88R
$$

ABBREVIATIONS USED IN REMARKS
   TC - TEMPERATURE IN CELSIUS
  WCI - WIND CHILL INDEX
   HX - HEAT INDEX
  VSB - VISIBILITY



USA.gov is the U.S. government's official web portal to all federal, state and local government web resources and services.